User: anonymous   Login
Location: Indian Springs
(36.5700°N, 115.6700°W)
Time: 09:09:33
(UTC-08:00)
Language:

Cosmos 2278 Rocket - Orbit

View from above orbital plane
View from above orbital plane
View from above satellite
View from above satellite

Ground track
Ground track

The orbit data is extracted from the following two-line orbital elements,

1 23088U 94023B   16040.99949927  .00000246  00000-0  15255-3 0  9991
2 23088  70.9980 237.1741 0002223 169.0674 191.0497 14.14638067125798
Epoch (UTC): 09 February 2016 23:59:16
Eccentricity: 0.0002223
inclination: 70.9980°
perigee height: 842 km
apogee height: 845 km
right ascension of ascending node: 237.1741°
argument of perigee: 169.0674°
revolutions per day: 14.14638067
mean anomaly at epoch: 191.0497°
orbit number at epoch: 12579

The dashed part of the orbit path shows where the satellite is in the earth's shadow,  

DLR